FW8535 Weather Reports


time (UTC)temp
C
wind
direction
speed
KPH
gust
KPH
rain 1hr
cm
rain 24hr
cm
rain mn
cm
humidity
%
barometer
mb
20260831231024 27 248 11.3 25.7 0.00 0.00 0.00 32 1010.9
20260831230524 27 289 14.5 25.7 0.00 0.00 0.00 32 1010.9
20260831230025 27 271 14.5 25.7 0.00 0.00 0.00 33 1011.1
20260831225526 26 263 11.3 30.6 0.00 0.00 0.00 33 1011.1
20260831225124 26 321 12.9 32.2 0.00 0.00 0.00 32 1011.0
20260831224527 27 355 9.7 32.2 0.00 0.00 0.00 32 1011.0
20260831224026 27 271 16.1 32.2 0.00 0.00 0.00 32 1011.1
20260831223527 27 252 9.7 30.6 0.00 0.00 0.00 32 1011.0
20260831223026 27 242 16.1 30.6 0.00 0.00 0.00 32 1010.7
20260831222526 27 308 14.5 37.0 0.00 0.00 0.00 31 1010.9
20260831222029 27 282 12.9 27.4 0.00 0.00 0.00 32 1010.8
20260831221527 27 264 16.1 29.0 0.00 0.00 0.00 32 1010.8
20260831221025 27 278 14.5 29.0 0.00 0.00 0.00 32 1010.7
20260831220525 27 269 14.5 30.6 0.00 0.00 0.00 32 1010.8
20260831220029 27 289 14.5 35.4 0.00 0.00 0.00 32 1010.8
20260831215525 27 290 19.3 35.4 0.00 0.00 0.00 31 1010.9
20260831214523 27 267 14.5 29.0 0.00 0.00 0.00 32 1010.8
20260831214022 27 257 14.5 29.0 0.00 0.00 0.00 32 1010.8
20260831213522 27 237 14.5 29.0 0.00 0.00 0.00 32 1010.8
20260831213035 27 275 12.9 30.6 0.00 0.00 0.00 32 1010.8
20260831212522 27 247 14.5 30.6 0.00 0.00 0.00 33 1010.8
20260831212022 27 272 11.3 37.0 0.00 0.00 0.00 32 1010.8
20260831211522 27 261 17.7 37.0 0.00 0.00 0.00 32 1010.9
20260831211021 27 248 16.1 30.6 0.00 0.00 0.00 32 1011.0
20260831210521 27 315 19.3 43.5 0.00 0.00 0.00 32 1011.3
20260831210021 27 248 19.3 43.5 0.00 0.00 0.00 31 1010.9
20260831205520 27 261 14.5 30.6 0.00 0.00 0.00 32 1011.0
20260831205024 27 272 14.5 29.0 0.00 0.00 0.00 32 1011.2
20260831204522 27 272 17.7 29.0 0.00 0.00 0.00 32 1011.2
20260831204022 27 268 14.5 29.0 0.00 0.00 0.00 33 1011.1
20260831203522 27 253 11.3 37.0 0.00 0.00 0.00 33 1011.0
20260831203036 27 260 16.1 37.0 0.00 0.00 0.00 31 1011.0
20260831202519 26 286 16.1 33.8 0.00 0.00 0.00 32 1011.0
20260831202019 26 238 14.5 33.8 0.00 0.00 0.00 33 1010.8
20260831201519 26 250 14.5 37.0 0.00 0.00 0.00 34 1011.0
20260831201018 26 261 20.9 37.0 0.00 0.00 0.00 34 1011.1
20260831200518 26 223 16.1 46.7 0.00 0.00 0.00 34 1011.0
20260831200017 26 229 16.1 38.6 0.00 0.00 0.00 34 1011.0
20260831195516 26 246 16.1 41.8 0.00 0.00 0.00 34 1010.9
20260831195115 26 263 16.1 32.2 0.00 0.00 0.00 35 1011.0
20260831194523 26 295 14.5 32.2 0.00 0.00 0.00 35 1011.0
20260831194019 26 259 14.5 46.7 0.00 0.00 0.00 36 1011.0
20260831193519 26 247 17.7 46.7 0.00 0.00 0.00 36 1011.1
20260831193021 26 263 17.7 35.4 0.00 0.00 0.00 36 1010.9
20260831192524 26 271 17.7 35.4 0.00 0.00 0.00 37 1011.0
20260831192017 26 273 17.7 37.0 0.00 0.00 0.00 37 1011.0
20260831191516 26 265 16.1 38.6 0.00 0.00 0.00 37 1011.1
20260831191017 25 253 19.3 38.6 0.00 0.00 0.00 37 1011.0
20260831190515 25 249 14.5 37.0 0.00 0.00 0.00 38 1010.9
20260831190015 25 315 16.1 37.0 0.00 0.00 0.00 38 1011.0
20260831185517 25 245 22.5 33.8 0.00 0.00 0.00 37 1010.9
20260831185014 25 246 14.5 38.6 0.00 0.00 0.00 38 1010.9
20260831184507 25 247 14.5 38.6 0.00 0.00 0.00 38 1010.9
20260831184006 25 251 16.1 38.6 0.00 0.00 0.00 38 1010.8
20260831183507 25 262 19.3 33.8 0.00 0.00 0.00 38 1010.8
20260831183006 25 256 19.3 32.2 0.00 0.00 0.00 38 1010.8
20260831182505 25 238 12.9 27.4 0.00 0.00 0.00 38 1010.9
20260831182004 25 303 14.5 30.6 0.00 0.00 0.00 39 1010.9
20260831181503 25 259 12.9 33.8 0.00 0.00 0.00 39 1010.8
20260831181002 24 267 17.7 33.8 0.00 0.00 0.00 40 1010.9
20260831180502 24 290 16.1 37.0 0.00 0.00 0.00 40 1010.8
20260831180003 24 279 19.3 37.0 0.00 0.00 0.00 39 1011.0
20260831175502 25 264 16.1 32.2 0.00 0.00 0.00 39 1011.2
20260831175102 25 286 12.9 32.2 0.00 0.00 0.00 40 1011.2
20260831174100 24 292 16.1 29.0 0.00 0.00 0.00 40 1010.9
20260831173603 24 290 17.7 38.6 0.00 0.00 0.00 40 1010.9
20260831173100 23 272 14.5 38.6 0.00 0.00 0.00 41 1011.0
20260831172601 23 258 14.5 32.2 0.00 0.00 0.00 41 1011.0
20260831172056 23 246 16.1 41.8 0.00 0.00 0.00 41 1011.0
20260831171604 23 250 20.9 41.8 0.00 0.00 0.00 40 1011.1
20260831171055 23 265 16.1 38.6 0.00 0.00 0.00 41 1010.8
20260831170554 23 280 17.7 38.6 0.00 0.00 0.00 41 1010.8
20260831170054 23 254 20.9 37.0 0.00 0.00 0.00 41 1010.7
20260831165554 22 292 17.7 35.4 0.00 0.00 0.00 41 1010.8
20260831165052 22 238 16.1 33.8 0.00 0.00 0.00 41 1010.8
20260831164056 22 294 17.7 33.8 0.00 0.00 0.00 41 1010.8
20260831163554 22 254 19.3 30.6 0.00 0.00 0.00 41 1010.7
20260831163054 22 278 17.7 32.2 0.00 0.00 0.00 41 1010.7
20260831162553 22 238 17.7 32.2 0.00 0.00 0.00 41 1010.6
20260831162052 22 269 17.7 32.2 0.00 0.00 0.00 40 1010.7
20260831161552 22 267 16.1 32.2 0.00 0.00 0.00 40 1010.7
20260831161052 22 261 17.7 32.2 0.00 0.00 0.00 40 1010.8
20260831160551 22 261 19.3 38.6 0.00 0.00 0.00 40 1010.6
20260831160117 22 270 19.3 41.8 0.00 0.00 0.00 40 1010.8
20260831155550 21 277 22.5 41.8 0.00 0.00 0.00 39 1010.7
20260831155049 21 263 17.7 43.5 0.00 0.00 0.00 40 1010.6
20260831154051 21 261 19.3 43.5 0.00 0.00 0.00 41 1010.5
20260831153546 21 240 19.3 43.5 0.00 0.00 0.00 41 1010.5
20260831153121 21 263 20.9 37.0 0.00 0.00 0.00 41 1010.5
20260831152544 20 234 17.7 37.0 0.00 0.00 0.00 42 1010.7
20260831152045 20 237 19.3 30.6 0.00 0.00 0.00 42 1010.5
20260831151542 20 238 12.9 32.2 0.00 0.00 0.00 43 1010.4
20260831151042 20 253 22.5 32.2 0.00 0.00 0.00 42 1010.4
20260831150544 20 236 16.1 43.5 0.00 0.00 0.00 43 1010.6
20260831150040 20 237 19.3 43.5 0.00 0.00 0.00 43 1010.6
20260831145539 20 265 16.1 33.8 0.00 0.00 0.00 42 1010.4
20260831145042 19 290 19.3 43.5 0.00 0.00 0.00 42 1010.4
20260831144039 19 233 22.5 43.5 0.00 0.00 0.00 42 1010.2
20260831143538 19 228 22.5 40.2 0.00 0.00 0.00 43 1010.1
20260831143038 18 236 17.7 33.8 0.00 0.00 0.00 44 1010.1
20260831142536 18 256 20.9 41.8 0.00 0.00 0.00 44 1010.2
20260831142035 18 238 19.3 41.8 0.00 0.00 0.00 45 1010.4
20260831141535 17 284 25.7 37.0 0.00 0.00 0.00 45 1010.3
20260831141035 17 229 20.9 30.6 0.00 0.00 0.00 46 1010.2
20260831140530 17 241 16.1 29.0 0.00 0.00 0.00 47 1010.4
20260831140029 17 248 17.7 29.0 0.00 0.00 0.00 48 1010.3
20260831135529 16 238 17.7 29.0 0.00 0.00 0.00 49 1010.4
20260831135129 16 246 17.7 27.4 0.00 0.00 0.00 50 1010.5
20260831134027 16 240 17.7 32.2 0.00 0.00 0.00 52 1010.4
20260831133526 15 240 16.1 27.4 0.00 0.00 0.00 53 1010.4
20260831133125 15 238 16.1 27.4 0.00 0.00 0.00 54 1010.4
20260831132523 15 232 14.5 25.7 0.00 0.00 0.00 55 1010.3
20260831132022 15 251 14.5 22.5 0.00 0.00 0.00 56 1010.3
20260831131525 15 233 8.0 22.5 0.00 0.00 0.00 57 1010.4
20260831131019 14 235 11.3 22.5 0.00 0.00 0.00 57 1010.2
20260831130518 14 222 9.7 27.4 0.00 0.00 0.00 57 1010.0
20260831130017 13 246 16.1 27.4 0.00 0.00 0.00 58 1010.1
20260831125516 13 223 9.7 19.3 0.00 0.00 0.00 59 1010.0
20260831125017 13 266 8.0 19.3 0.00 0.00 0.00 59 1009.9
20260831124013 13 238 8.0 20.9 0.00 0.00 0.00 60 1010.0
20260831123515 13 244 9.7 24.1 0.00 0.00 0.00 60 1009.8
20260831123111 13 257 14.5 24.1 0.00 0.00 0.00 60 1009.8
20260831122511 13 234 12.9 20.9 0.00 0.00 0.00 61 1009.7
20260831122011 12 238 12.9 19.3 0.00 0.00 0.00 63 1009.8
20260831121521 12 232 11.3 20.9 0.00 0.00 0.00 63 1009.8
20260831121013 13 239 11.3 20.9 0.00 0.00 0.00 62 1009.8
20260831120509 13 234 11.3 22.5 0.00 0.00 0.00 62 1009.9
20260831120023 13 233 14.5 24.1 0.00 0.00 0.00 63 1009.9
20260831115508 13 229 16.1 24.1 0.00 0.00 0.00 64 1009.7
20260831115014 12 221 14.5 19.3 0.00 0.00 0.00 68 1009.5
20260831114009 12 223 14.5 19.3 0.00 0.00 0.00 70 1009.7
20260831113511 12 229 12.9 24.1 0.00 0.00 0.00 69 1009.4
20260831113008 12 225 14.5 24.1 0.00 0.00 0.00 67 1009.4
20260831112508 12 244 14.5 24.1 0.00 0.00 0.00 68 1009.2
20260831112008 12 242 14.5 24.1 0.00 0.00 0.00 70 1009.2
20260831111506 12 199 11.3 24.1 0.00 0.00 0.00 70 1009.1
20260831111007 12 215 12.9 19.3 0.00 0.00 0.00 70 1009.1
20260831110507 12 230 11.3 17.7 0.00 0.00 0.00 71 1009.2
20260831110006 12 227 11.3 14.5 0.00 0.00 0.00 71 1009.1
20260831105506 11 234 9.7 16.1 0.00 0.00 0.00 74 1009.1
20260831105009 12 211 8.0 16.1 0.00 0.00 0.00 73 1008.8
20260831104007 13 219 11.3 20.9 0.00 0.00 0.00 70 1008.9
20260831103506 13 227 14.5 20.9 0.00 0.00 0.00 69 1008.9
20260831103005 12 229 11.3 16.1 0.00 0.00 0.00 71 1008.9
20260831102506 13 222 11.3 29.0 0.00 0.00 0.00 71 1009.0
20260831102005 13 222 12.9 29.0 0.00 0.00 0.00 69 1009.1
20260831101506 13 237 6.4 25.7 0.00 0.00 0.00 71 1009.0
20260831101005 13 238 12.9 25.7 0.00 0.00 0.00 73 1009.0
20260831100502 13 236 11.3 24.1 0.00 0.00 0.00 75 1009.1
20260831100003 13 229 16.1 24.1 0.00 0.00 0.00 76 1009.2
20260831095501 13 225 16.1 24.1 0.00 0.00 0.00 76 1009.2
20260831095100 13 239 17.7 24.1 0.00 0.00 0.00 78 1009.1
20260831094035 11 250 11.3 17.7 0.00 0.00 0.00 85 1009.1
20260831093532 10 229 6.4 16.1 0.00 0.00 0.00 85 1009.4
20260831093030 10 143 0.0 6.4 0.00 0.00 0.00 83 1009.3
20260831092529 11 143 3.2 6.4 0.00 0.00 0.00 83 1009.1
20260831092032 11 143 1.6 9.7 0.00 0.00 0.00 83 1009.1
20260831091528 11 150 4.8 9.7 0.00 0.00 0.00 82 1009.1
20260831090557 11 140 8.0 16.1 0.00 0.00 0.00 81 1009.0
20260831090054 12 123 8.0 16.1 0.00 0.00 0.00 81 1009.0
20260831085554 12 200 3.2 9.7 0.00 0.00 0.00 81 1008.9
20260831085055 11 185 4.8 11.3 0.00 0.00 0.00 82 1008.9
20260831084557 12 188 4.8 12.9 0.00 0.00 0.00 82 1008.8
20260831084053 12 187 9.7 14.5 0.00 0.00 0.00 82 1008.9
20260831083554 11 181 8.0 11.3 0.00 0.00 0.00 83 1008.7
20260831083057 11 199 8.0 11.3 0.00 0.00 0.00 83 1008.8
20260831082554 11 195 4.8 12.9 0.00 0.00 0.00 82 1008.6
20260831082052 12 212 8.0 12.9 0.00 0.00 0.00 82 1008.7
20260831081558 12 210 8.0 12.9 0.00 0.00 0.00 82 1008.7
20260831080554 12 209 9.7 14.5 0.00 0.00 0.00 82 1008.6
20260831080050 12 221 9.7 17.7 0.00 0.00 0.00 81 1008.7
20260831075550 12 209 11.3 17.7 0.00 0.00 0.00 81 1008.6
20260831075049 12 190 12.9 17.7 0.00 0.00 0.00 81 1008.6
20260831074553 12 193 12.9 19.3 0.00 0.00 0.00 81 1008.7
20260831074048 12 204 11.3 16.1 0.00 0.00 0.00 80 1008.5
20260831073551 12 196 8.0 17.7 0.00 0.00 0.00 79 1008.6
20260831073048 12 189 12.9 19.3 0.00 0.00 0.00 79 1008.6
20260831072551 12 215 12.9 16.1 0.00 0.00 0.00 78 1008.7
20260831072046 12 215 9.7 14.5 0.00 0.00 0.00 78 1008.6
20260831071546 12 217 11.3 14.5 0.00 0.00 0.00 77 1008.6
20260831070549 12 220 8.0 12.9 0.00 0.00 0.00 77 1008.6
20260831070108 12 222 9.7 16.1 0.00 0.00 0.00 77 1008.7
20260831065546 12 225 9.7 17.7 0.00 0.00 0.00 78 1008.6
20260831065044 12 209 11.3 17.7 0.00 0.00 0.00 79 1008.6
20260831064645 12 209 6.4 11.3 0.00 0.00 0.00 78 1008.7
20260831064043 12 229 6.4 8.0 0.00 0.00 0.00 77 1008.7
20260831063541 12 241 4.8 8.0 0.00 0.00 0.00 76 1008.5
20260831063041 12 242 3.2 11.3 0.00 0.00 0.00 77 1008.8
20260831062541 12 241 4.8 11.3 0.00 0.00 0.00 77 1008.8
20260831062041 12 257 3.2 11.3 0.00 0.00 0.00 79 1008.7
20260831061541 12 258 1.6 11.3 0.00 0.00 0.00 80 1008.9
20260831060540 11 227 6.4 11.3 0.00 0.00 0.00 83 1009.1
20260831060048 10 227 6.4 11.3 0.00 0.00 0.00 84 1008.9
20260831055539 10 229 6.4 8.0 0.00 0.00 0.00 83 1008.9
20260831055043 10 229 6.4 8.0 0.00 0.00 0.00 84 1009.0
20260831054539 10 229 4.8 8.0 0.00 0.00 0.00 84 1008.9
20260831054039 10 230 4.8 8.0 0.00 0.00 0.00 84 1008.8
20260831053539 10 229 4.8 8.0 0.00 0.00 0.00 84 1008.9
20260831053039 10 229 4.8 8.0 0.00 0.00 0.00 84 1008.9
20260831052539 10 230 6.4 8.0 0.00 0.00 0.00 84 1009.0
20260831052040 10 230 4.8 8.0 0.00 0.00 0.00 85 1008.8
20260831051552 10 230 4.8 8.0 0.00 0.00 0.00 84 1009.1
20260831050540 10 231 4.8 8.0 0.00 0.00 0.00 84 1009.0
20260831050041 10 232 4.8 8.0 0.00 0.00 0.00 83 1008.9
20260831045539 10 232 4.8 6.4 0.00 0.00 0.00 83 1009.0
20260831045039 10 232 4.8 6.4 0.00 0.00 0.00 82 1008.9
20260831044543 10 232 3.2 6.4 0.00 0.00 0.00 83 1008.8
20260831044038 10 232 4.8 6.4 0.00 0.00 0.00 83 1008.9
20260831043537 11 232 4.8 8.0 0.00 0.00 0.00 83 1008.8
20260831043041 10 232 4.8 8.0 0.00 0.00 0.00 83 1009.0
20260831042537 10 234 4.8 6.4 0.00 0.00 0.00 83 1008.9
20260831042038 11 234 4.8 6.4 0.00 0.00 0.00 80 1008.9
20260831041536 11 250 3.2 6.4 0.00 0.00 0.00 79 1008.7
20260831040536 12 252 0.0 6.4 0.00 0.00 0.00 79 1008.6
20260831040045 12 252 1.6 6.4 0.00 0.00 0.00 80 1008.7
20260831035535 12 252 3.2 6.4 0.00 0.00 0.00 79 1008.7
20260831035034 12 252 3.2 6.4 0.00 0.00 0.00 78 1008.6
20260831034534 12 252 3.2 6.4 0.00 0.00 0.00 79 1008.6
20260831034034 12 252 3.2 6.4 0.00 0.00 0.00 79 1008.6
20260831033534 12 252 3.2 6.4 0.00 0.00 0.00 79 1008.7
20260831033033 12 252 4.8 6.4 0.00 0.00 0.00 77 1008.6
20260831032532 12 262 0.0 4.8 0.00 0.00 0.00 76 1008.5
20260831032031 13 263 0.0 4.8 0.00 0.00 0.00 76 1008.6
20260831031530 13 263 0.0 1.6 0.00 0.00 0.00 75 1008.5
20260831030526 13 263 0.0 1.6 0.00 0.00 0.00 74 1008.5
20260831030029 13 263 0.0 0.0 0.00 0.00 0.00 74 1008.7
20260831025525 13 263 0.0 0.0 0.00 0.00 0.00 74 1008.5
20260831025023 13 263 0.0 0.0 0.00 0.00 0.00 72 1008.5
20260831024523 14 263 0.0 3.2 0.00 0.00 0.00 71 1008.4
20260831024024 14 264 0.0 3.2 0.00 0.00 0.00 70 1008.3
20260831023520 15 264 1.6 3.2 0.00 0.00 0.00 70 1008.2
20260831023029 15 263 0.0 3.2 0.00 0.00 0.00 70 1008.3
20260831022519 15 264 0.0 4.8 0.00 0.00 0.00 70 1008.2
20260831022019 15 264 0.0 4.8 0.00 0.00 0.00 70 1008.2
20260831021539 15 264 3.2 4.8 0.00 0.00 0.00 69 1007.8
20260831020517 15 264 3.2 6.4 0.00 0.00 0.00 68 1007.7
20260831020015 15 264 3.2 6.4 0.00 0.00 0.00 67 1007.5
20260831015519 16 265 3.2 6.4 0.00 0.00 0.00 66 1007.4
20260831015019 16 271 3.2 4.8 0.00 0.00 0.00 66 1007.6
20260831014515 16 271 3.2 6.4 0.00 0.00 0.00 65 1007.6
20260831014014 17 271 3.2 11.3 0.00 0.00 0.00 64 1007.5
20260831013514 17 271 3.2 11.3 0.00 0.00 0.00 63 1007.3
20260831013014 17 262 3.2 9.7 0.00 0.00 0.00 64 1007.1
20260831012514 17 253 6.4 9.7 0.00 0.00 0.00 64 1007.1
20260831012014 17 245 3.2 12.9 0.00 0.00 0.00 65 1007.2
20260831011513 18 229 11.3 19.3 0.00 0.00 0.00 64 1007.2
20260831010516 18 242 12.9 20.9 0.00 0.00 0.00 64 1007.0
20260831010032 18 230 12.9 20.9 0.00 0.00 0.00 65 1007.0
20260831005515 18 223 14.5 24.1 0.00 0.00 0.00 65 1007.0
20260831005014 18 227 14.5 24.1 0.00 0.00 0.00 64 1007.0
20260831004618 18 234 17.7 24.1 0.00 0.00 0.00 64 1006.6
20260831004014 18 228 16.1 20.9 0.00 0.00 0.00 64 1006.7
20260831003514 18 228 11.3 19.3 0.00 0.00 0.00 65 1006.6
20260831003013 18 223 12.9 19.3 0.00 0.00 0.00 65 1006.6
20260831002514 18 236 12.9 24.1 0.00 0.00 0.00 66 1006.9
20260831002014 18 218 16.1 24.1 0.00 0.00 0.00 66 1006.9
20260831001527 18 227 12.9 22.5 0.00 0.00 0.00 67 1006.8
20260831000516 18 233 12.9 22.5 0.00 0.00 0.00 68 1006.9
20260831000016 17 237 11.3 16.1 0.00 0.00 0.00 70 1006.8
20260830235516 17 202 9.7 16.1 0.00 0.00 0.00 72 1006.8
20260830235017 17 236 9.7 16.1 0.00 0.00 0.00 74 1007.0
20260830234516 17 213 8.0 12.9 0.00 0.00 0.00 75 1007.1
20260830234019 16 226 8.0 11.3 0.00 0.00 0.00 75 1007.0
20260830233518 16 221 4.8 11.3 0.00 0.00 0.00 75 1007.1
20260830233016 16 235 4.8 9.7 0.00 0.00 0.00 76 1007.2
20260830232520 16 235 3.2 9.7 0.00 0.00 0.00 76 1007.3
20260830232016 16 235 4.8 9.7 0.00 0.00 0.00 75 1007.2
20260830231526 16 203 3.2 11.3 0.00 0.00 0.00 77 1007.2